Regional Weather Roundup
Issued by NWS

Home | Current Version | Previous Version | Graphics & Text | Print | Product List | Glossary On
Versions: 1 2 3 4 5 6 7 8 9 10 11 12 13 14 15 16 17 18 19 20 21 22 23 24 25 26 27 28
000
ASUS45 KCYS 221610
RWRWY

WYOMING REGIONAL WEATHER ROUNDUP
NATIONAL WEATHER SERVICE CHEYENNE WY
900 AM MST SUN JAN 22 2017

NOTE:  "FAIR" INDICATES FEW OR NO CLOUDS BELOW 12,000 FEET
WITH NO SIGNIFICANT WEATHER AND/OR OBSTRUCTIONS TO VISIBILITY.

WYZ001-221700-
YELLOWSTONE NATIONAL PARK

CITY           SKY/WX    TMP DP  RH WIND       PRES   REMARKS
LK YELLOWSTONE   N/A     15  13  91 CALM      29.87R
W YELLOWSTONE  NOT AVBL

$$
WYZ002>013-054>058-071-098>099-221700-
NORTHERN WYOMING

CITY           SKY/WX    TMP DP  RH WIND       PRES   REMARKS
JACKSON        CLOUDY    23  21  93 SW6       29.91R WCI  16
CODY           FAIR      33  14  45 W10       29.85R WCI  25
GREYBULL       FAIR       3   2  95 CALM      29.90R
WORLAND        FAIR       5   3  91 SW7       29.89R WCI  -7
SHERIDAN       FAIR      25  16  68 S5        29.85R WCI  19
BUFFALO        FAIR      28  17  63 VRB3      29.84R
GILLETTE       FAIR      30  21  69 W6        29.84R WCI  24
HULETT         FAIR      25  19  80 SW9       29.84S WCI  15
NEWCASTLE      FAIR      18  14  86 CALM      29.87R

$$
WYZ014>020-022>026-101>103-221700-
CENTRAL WYOMING

CITY           SKY/WX    TMP DP  RH WIND       PRES   REMARKS
BIG PINEY      PTSUNNY    3   0  87 E6        29.94S WCI  -8
PINEDALE       CLOUDY     9   7  92 W5        29.96R WCI   0
DUBOIS         NOT AVBL
LANDER         FAIR      21  10  62 N3        29.87R
RIVERTON       FAIR     N/A N/A N/A E6        29.88R
CASPER         FAIR      27  16  63 SW23      29.88R WCI  12
DOUGLAS        FAIR      32  20  61 NW9       29.88R WCI  24

$$
WYZ021-027>030-104>119-221700-
SOUTHERN WYOMING

CITY           SKY/WX    TMP DP  RH WIND       PRES   REMARKS
EVANSTON       FAIR      12   6  77 E8        29.92S WCI   0
ROCK SPRINGS   FAIR      15  10  80 W3        29.97R
RAWLINS        FAIR      20  12  71 SW15      29.94R WCI   6
LARAMIE        FAIR      19   9  65 SW13      29.89R WCI   6
CHEYENNE       FAIR      29  12  49 NW8       29.89R WCI  21
TORRINGTON     FAIR      32  22  66 W6        29.90R WCI  26

$$




USA.gov is the U.S. government's official web portal to all federal, state and local government web resources and services.